Time,TemperatureF,DewpointF,PressureIn,WindDirection,WindDirectionDegrees,WindSpeedMPH,WindSpeedGustMPH,Humidity,HourlyPrecipIn,Conditions,Clouds,dailyrainin,SolarRadiationWatts/m^2,SoftwareType,DateUTC
2013-06-15 00:03:00,74.1,66.8,29.91,NE,42,1.0,2.0,78,0.00,,,0.00,0,Wunderground v.1.15,2013-06-15 05:03:00,
2013-06-15 00:08:00,74.0,66.7,29.91,ENE,68,0.0,2.0,78,0.00,,,0.00,0,Wunderground v.1.15,2013-06-15 05:08:00,
2013-06-15 00:13:00,73.9,66.6,29.91,ENE,65,1.0,2.0,78,0.00,,,0.00,0,Wunderground v.1.15,2013-06-15 05:13:00,
2013-06-15 00:19:00,73.7,66.4,29.92,NE,48,1.0,2.0,78,0.00,,,0.00,0,Wunderground v.1.15,2013-06-15 05:19:00,
2013-06-15 00:26:00,73.5,66.6,29.92,NE,42,1.0,1.0,79,0.00,,,0.00,0,Wunderground v.1.15,2013-06-15 05:26:00,
2013-06-15 01:15:00,72.0,66.2,29.92,NE,56,0.0,1.0,82,0.00,,,0.00,0,Wunderground v.1.15,2013-06-15 06:15:00,
2013-06-15 01:36:00,71.3,65.9,29.92,NE,56,0.0,1.0,83,0.00,,,0.00,0,Wunderground v.1.15,2013-06-15 06:36:00,
2013-06-15 01:41:00,71.1,66.0,29.92,NE,56,0.0,1.0,84,0.00,,,0.00,0,Wunderground v.1.15,2013-06-15 06:41:00,
2013-06-15 01:47:00,70.9,65.8,29.93,NE,56,0.0,1.0,84,0.00,,,0.00,0,Wunderground v.1.15,2013-06-15 06:47:00,
2013-06-15 01:52:00,70.7,65.6,29.93,NE,56,0.0,1.0,84,0.00,,,0.00,0,Wunderground v.1.15,2013-06-15 06:52:00,
2013-06-15 01:57:00,70.5,65.8,29.93,NE,56,0.0,1.0,85,0.00,,,0.00,0,Wunderground v.1.15,2013-06-15 06:57:00,
2013-06-15 02:02:00,70.4,65.7,29.93,NE,56,0.0,1.0,85,0.00,,,0.00,0,Wunderground v.1.15,2013-06-15 07:02:00,
2013-06-15 02:07:00,70.3,65.6,29.93,NE,56,0.0,1.0,85,0.00,,,0.00,0,Wunderground v.1.15,2013-06-15 07:07:00,
2013-06-15 02:12:00,70.1,65.7,29.93,NE,56,0.0,1.0,86,0.00,,,0.00,0,Wunderground v.1.15,2013-06-15 07:12:00,
2013-06-15 02:17:00,70.0,65.6,29.93,NE,56,0.0,1.0,86,0.00,,,0.00,0,Wunderground v.1.15,2013-06-15 07:17:00,
2013-06-15 02:22:00,69.8,65.4,29.93,NE,56,0.0,1.0,86,0.00,,,0.00,0,Wunderground v.1.15,2013-06-15 07:22:00,
2013-06-15 02:39:00,69.4,65.4,29.93,NE,56,0.0,1.0,87,0.00,,,0.00,0,Wunderground v.1.15,2013-06-15 07:39:00,
2013-06-15 03:05:00,68.8,65.1,29.91,NE,56,0.0,1.0,88,0.00,,,0.00,0,Wunderground v.1.15,2013-06-15 08:05:00,
2013-06-15 04:01:00,68.8,64.8,29.91,East,98,0.0,1.0,87,0.00,,,0.00,0,Wunderground v.1.15,2013-06-15 09:01:00,
2013-06-15 04:06:00,68.8,64.8,29.92,East,98,0.0,1.0,87,0.00,,,0.00,0,Wunderground v.1.15,2013-06-15 09:06:00,
2013-06-15 04:11:00,68.8,64.8,29.92,East,98,0.0,1.0,87,0.00,,,0.00,0,Wunderground v.1.15,2013-06-15 09:11:00,
2013-06-15 04:17:00,68.8,64.8,29.92,East,98,0.0,1.0,87,0.00,,,0.00,0,Wunderground v.1.15,2013-06-15 09:17:00,
2013-06-15 04:22:00,68.7,64.7,29.92,East,98,0.0,1.0,87,0.00,,,0.00,0,Wunderground v.1.15,2013-06-15 09:22:00,
2013-06-15 04:27:00,68.7,64.7,29.92,East,98,0.0,1.0,87,0.00,,,0.00,0,Wunderground v.1.15,2013-06-15 09:27:00,
2013-06-15 04:32:00,68.8,64.8,29.92,East,98,0.0,1.0,87,0.00,,,0.00,0,Wunderground v.1.15,2013-06-15 09:32:00,
2013-06-15 04:38:00,68.7,64.7,29.92,East,98,0.0,1.0,87,0.00,,,0.00,0,Wunderground v.1.15,2013-06-15 09:38:00,
2013-06-15 04:43:00,68.6,64.6,29.92,East,98,0.0,1.0,87,0.00,,,0.00,0,Wunderground v.1.15,2013-06-15 09:43:00,
2013-06-15 04:49:00,68.6,64.9,29.92,East,98,0.0,1.0,88,0.00,,,0.00,0,Wunderground v.1.15,2013-06-15 09:49:00,
2013-06-15 04:54:00,68.5,64.5,29.92,East,98,0.0,1.0,87,0.00,,,0.00,0,Wunderground v.1.15,2013-06-15 09:54:00,
2013-06-15 04:59:00,68.5,64.5,29.92,East,98,0.0,1.0,87,0.00,,,0.00,0,Wunderground v.1.15,2013-06-15 09:59:00,
2013-06-15 05:05:00,68.4,64.7,29.92,East,98,0.0,1.0,88,0.00,,,0.00,0,Wunderground v.1.15,2013-06-15 10:05:00,
2013-06-15 05:10:00,68.3,64.6,29.92,East,98,0.0,1.0,88,0.00,,,0.00,0,Wunderground v.1.15,2013-06-15 10:10:00,
2013-06-15 05:15:00,68.1,64.4,29.92,East,98,0.0,1.0,88,0.00,,,0.00,0,Wunderground v.1.15,2013-06-15 10:15:00,
2013-06-15 05:20:00,68.1,64.4,29.93,East,98,0.0,1.0,88,0.00,,,0.00,0,Wunderground v.1.15,2013-06-15 10:20:00,
2013-06-15 05:25:00,68.0,64.3,29.93,East,98,0.0,1.0,88,0.00,,,0.00,0,Wunderground v.1.15,2013-06-15 10:25:00,
2013-06-15 05:31:00,68.0,64.6,29.93,East,98,0.0,1.0,89,0.00,,,0.00,0,Wunderground v.1.15,2013-06-15 10:31:00,
2013-06-15 05:36:00,68.1,64.7,29.93,East,86,0.0,1.0,89,0.00,,,0.00,0,Wunderground v.1.15,2013-06-15 10:36:00,
2013-06-15 05:41:00,68.1,64.7,29.93,East,86,0.0,1.0,89,0.00,,,0.00,0,Wunderground v.1.15,2013-06-15 10:41:00,
2013-06-15 05:47:00,68.1,64.7,29.93,East,86,0.0,1.0,89,0.00,,,0.00,0,Wunderground v.1.15,2013-06-15 10:47:00,
2013-06-15 05:53:00,68.0,64.3,29.93,ENE,77,0.0,1.0,88,0.00,,,0.00,0,Wunderground v.1.15,2013-06-15 10:53:00,
2013-06-15 05:58:00,68.0,64.3,29.94,ENE,77,0.0,1.0,88,0.00,,,0.00,5,Wunderground v.1.15,2013-06-15 10:58:00,
2013-06-15 06:29:00,68.4,64.4,29.94,ENE,57,0.0,2.0,87,0.00,,,0.00,26,Wunderground v.1.15,2013-06-15 11:29:00,
2013-06-15 06:34:00,68.5,64.5,29.94,NE,56,0.0,1.0,87,0.00,,,0.00,30,Wunderground v.1.15,2013-06-15 11:34:00,
2013-06-15 06:40:00,68.6,64.6,29.94,ENE,61,0.0,1.0,87,0.00,,,0.00,35,Wunderground v.1.15,2013-06-15 11:40:00,
2013-06-15 06:45:00,68.8,64.8,29.95,NE,48,0.0,1.0,87,0.00,,,0.00,37,Wunderground v.1.15,2013-06-15 11:45:00,
2013-06-15 06:50:00,69.1,64.7,29.95,NE,48,0.0,1.0,86,0.00,,,0.00,49,Wunderground v.1.15,2013-06-15 11:50:00,
2013-06-15 06:55:00,69.3,64.9,29.95,NE,46,0.0,2.0,86,0.00,,,0.00,39,Wunderground v.1.15,2013-06-15 11:55:00,
2013-06-15 07:01:00,69.4,65.0,29.95,NE,54,0.0,1.0,86,0.00,,,0.00,72,Wunderground v.1.15,2013-06-15 12:01:00,
2013-06-15 07:06:00,69.5,64.8,29.95,NE,54,0.0,2.0,85,0.00,,,0.00,74,Wunderground v.1.15,2013-06-15 12:06:00,
2013-06-15 07:11:00,69.7,64.6,29.95,NE,54,0.0,1.0,84,0.00,,,0.00,84,Wunderground v.1.15,2013-06-15 12:11:00,
2013-06-15 07:17:00,70.0,64.9,29.95,NE,54,0.0,1.0,84,0.00,,,0.00,167,Wunderground v.1.15,2013-06-15 12:17:00,
2013-06-15 07:22:00,70.4,65.0,29.96,East,84,0.0,1.0,83,0.00,,,0.00,197,Wunderground v.1.15,2013-06-15 12:22:00,
2013-06-15 07:27:00,71.0,65.6,29.96,East,85,0.0,1.0,83,0.00,,,0.00,213,Wunderground v.1.15,2013-06-15 12:27:00,
2013-06-15 07:32:00,71.5,65.7,29.96,East,85,0.0,1.0,82,0.00,,,0.00,229,Wunderground v.1.15,2013-06-15 12:32:00,
2013-06-15 07:38:00,72.2,65.7,29.96,East,83,0.0,1.0,80,0.00,,,0.00,244,Wunderground v.1.15,2013-06-15 12:38:00,
2013-06-15 07:43:00,72.6,66.1,29.96,East,83,0.0,1.0,80,0.00,,,0.00,262,Wunderground v.1.15,2013-06-15 12:43:00,
2013-06-15 07:48:00,73.0,66.1,29.96,NE,52,0.0,1.0,79,0.00,,,0.00,279,Wunderground v.1.15,2013-06-15 12:48:00,
2013-06-15 07:54:00,73.3,66.4,29.96,ESE,111,0.0,1.0,79,0.00,,,0.00,301,Wunderground v.1.15,2013-06-15 12:54:00,
2013-06-15 08:00:00,73.6,66.7,29.96,ESE,106,0.0,1.0,79,0.00,,,0.00,320,Wunderground v.1.15,2013-06-15 13:00:00,
2013-06-15 08:05:00,73.9,66.6,29.96,ESE,108,0.0,3.0,78,0.00,,,0.00,338,Wunderground v.1.15,2013-06-15 13:05:00,
2013-06-15 08:11:00,74.2,66.5,29.96,ENE,77,0.0,1.0,77,0.00,,,0.00,359,Wunderground v.1.15,2013-06-15 13:11:00,
2013-06-15 09:02:00,78.0,67.0,29.97,NE,55,1.0,1.0,69,0.00,,,0.00,529,Wunderground v.1.15,2013-06-15 14:02:00,
2013-06-15 09:08:00,78.4,67.4,29.97,East,99,1.0,1.0,69,0.00,,,0.00,548,Wunderground v.1.15,2013-06-15 14:08:00,
2013-06-15 09:13:00,78.7,67.7,29.98,East,100,0.0,1.0,69,0.00,,,0.00,564,Wunderground v.1.15,2013-06-15 14:13:00,
2013-06-15 09:19:00,78.9,67.9,29.98,SE,140,0.0,1.0,69,0.00,,,0.00,582,Wunderground v.1.15,2013-06-15 14:19:00,
2013-06-15 10:05:00,82.0,69.5,29.98,East,94,0.0,5.0,66,0.00,,,0.00,715,Wunderground v.1.15,2013-06-15 15:05:00,
2013-06-15 10:56:00,84.7,69.8,29.97,ESE,119,0.0,1.0,61,0.00,,,0.00,844,Wunderground v.1.15,2013-06-15 15:56:00,
2013-06-15 11:02:00,85.0,71.0,29.97,ESE,119,0.0,1.0,63,0.00,,,0.00,856,Wunderground v.1.15,2013-06-15 16:02:00,
2013-06-15 11:07:00,84.9,69.5,29.97,SE,133,0.0,3.0,60,0.00,,,0.00,868,Wunderground v.1.15,2013-06-15 16:07:00,
2013-06-15 11:13:00,85.1,70.1,29.98,East,98,0.0,1.0,61,0.00,,,0.00,874,Wunderground v.1.15,2013-06-15 16:13:00,
2013-06-15 11:29:00,85.9,69.9,29.98,SE,135,0.0,1.0,59,0.00,,,0.00,826,Wunderground v.1.15,2013-06-15 16:29:00,
2013-06-15 11:35:00,86.1,70.6,29.98,ESE,111,0.0,1.0,60,0.00,,,0.00,916,Wunderground v.1.15,2013-06-15 16:35:00,
2013-06-15 11:40:00,86.1,69.6,29.98,ESE,111,0.0,1.0,58,0.00,,,0.00,867,Wunderground v.1.15,2013-06-15 16:40:00,
2013-06-15 11:45:00,86.2,69.2,29.98,East,98,0.0,1.0,57,0.00,,,0.00,951,Wunderground v.1.15,2013-06-15 16:45:00,
2013-06-15 11:50:00,86.2,69.2,29.97,ENE,59,0.0,1.0,57,0.00,,,0.00,986,Wunderground v.1.15,2013-06-15 16:50:00,
2013-06-15 11:56:00,86.3,69.8,29.97,ENE,59,0.0,1.0,58,0.00,,,0.00,953,Wunderground v.1.15,2013-06-15 16:56:00,
2013-06-15 12:01:00,86.7,69.6,29.97,ENE,59,0.0,1.0,57,0.00,,,0.00,970,Wunderground v.1.15,2013-06-15 17:01:00,
2013-06-15 12:06:00,86.9,69.3,29.97,ENE,59,0.0,1.0,56,0.00,,,0.00,953,Wunderground v.1.15,2013-06-15 17:06:00,
2013-06-15 12:12:00,87.2,70.1,29.97,ENE,69,0.0,1.0,57,0.00,,,0.00,533,Wunderground v.1.15,2013-06-15 17:12:00,
2013-06-15 12:17:00,86.9,68.8,29.97,SE,144,1.0,5.0,55,0.00,,,0.00,986,Wunderground v.1.15,2013-06-15 17:17:00,
2013-06-15 12:23:00,86.6,68.5,29.97,SE,144,1.0,1.0,55,0.00,,,0.00,991,Wunderground v.1.15,2013-06-15 17:23:00,
2013-06-15 12:28:00,86.8,68.2,29.96,SE,144,0.0,1.0,54,0.00,,,0.00,951,Wunderground v.1.15,2013-06-15 17:28:00,
2013-06-15 12:33:00,87.1,69.0,29.96,SE,144,0.0,1.0,55,0.00,,,0.00,1018,Wunderground v.1.15,2013-06-15 17:33:00,
2013-06-15 12:38:00,87.7,70.6,29.96,ESE,123,0.0,1.0,57,0.00,,,0.00,1053,Wunderground v.1.15,2013-06-15 17:38:00,
2013-06-15 12:44:00,87.6,68.9,29.96,ENE,75,0.0,2.0,54,0.00,,,0.00,1058,Wunderground v.1.15,2013-06-15 17:44:00,
2013-06-15 12:49:00,87.5,68.8,29.96,ENE,75,0.0,2.0,54,0.00,,,0.00,1085,Wunderground v.1.15,2013-06-15 17:49:00,
2013-06-15 12:55:00,87.8,69.6,29.96,East,85,0.0,1.0,55,0.00,,,0.00,1102,Wunderground v.1.15,2013-06-15 17:55:00,
2013-06-15 13:01:00,87.9,69.7,29.96,SE,135,0.0,1.0,55,0.00,,,0.00,1013,Wunderground v.1.15,2013-06-15 18:01:00,
2013-06-15 13:07:00,88.2,70.0,29.96,SE,140,0.0,1.0,55,0.00,,,0.00,1146,Wunderground v.1.15,2013-06-15 18:07:00,
2013-06-15 13:14:00,88.0,69.8,29.95,SSW,198,0.0,1.0,55,0.00,,,0.00,1118,Wunderground v.1.15,2013-06-15 18:14:00,
2013-06-15 13:21:00,87.8,70.1,29.95,South,187,0.0,1.0,56,0.00,,,0.00,1100,Wunderground v.1.15,2013-06-15 18:21:00,
2013-06-15 13:59:00,89.2,68.7,29.95,SSE,154,0.0,1.0,51,0.00,,,0.00,302,Wunderground v.1.15,2013-06-15 18:59:00,
2013-06-15 14:04:00,88.6,69.8,29.95,SE,138,1.0,4.0,54,0.00,,,0.00,1106,Wunderground v.1.15,2013-06-15 19:04:00,
2013-06-15 14:09:00,88.4,69.6,29.95,SE,138,1.0,4.0,54,0.00,,,0.00,956,Wunderground v.1.15,2013-06-15 19:09:00,
2013-06-15 14:14:00,88.4,69.6,29.95,SE,138,0.0,1.0,54,0.00,,,0.00,202,Wunderground v.1.15,2013-06-15 19:14:00,
2013-06-15 14:19:00,88.2,72.1,29.95,SE,138,0.0,1.0,59,0.00,,,0.00,236,Wunderground v.1.15,2013-06-15 19:19:00,
2013-06-15 14:25:00,88.2,70.5,29.95,SE,138,0.0,1.0,56,0.00,,,0.00,1071,Wunderground v.1.15,2013-06-15 19:25:00,
2013-06-15 14:30:00,88.5,69.2,29.94,SSE,157,0.0,4.0,53,0.00,,,0.00,1009,Wunderground v.1.15,2013-06-15 19:30:00,
2013-06-15 14:36:00,88.8,68.3,29.94,WSW,249,1.0,6.0,51,0.00,,,0.00,990,Wunderground v.1.15,2013-06-15 19:36:00,
2013-06-15 14:41:00,88.9,70.6,29.94,East,92,2.0,5.0,55,0.00,,,0.00,991,Wunderground v.1.15,2013-06-15 19:41:00,
2013-06-15 14:46:00,88.9,71.7,29.94,SE,144,1.0,5.0,57,0.00,,,0.00,986,Wunderground v.1.15,2013-06-15 19:46:00,
2013-06-15 14:51:00,89.2,69.3,29.94,ESE,106,1.0,1.0,52,0.00,,,0.00,976,Wunderground v.1.15,2013-06-15 19:51:00,
2013-06-15 14:57:00,89.6,69.1,29.94,ESE,106,0.0,1.0,51,0.00,,,0.00,872,Wunderground v.1.15,2013-06-15 19:57:00,
2013-06-15 15:02:00,89.8,72.0,29.94,ESE,106,0.0,1.0,56,0.00,,,0.00,919,Wunderground v.1.15,2013-06-15 20:02:00,
2013-06-15 15:07:00,90.2,69.0,29.94,ESE,106,0.0,1.0,50,0.00,,,0.00,944,Wunderground v.1.15,2013-06-15 20:07:00,
2013-06-15 15:12:00,90.7,69.5,29.93,SSW,193,0.0,4.0,50,0.00,,,0.00,921,Wunderground v.1.15,2013-06-15 20:12:00,
2013-06-15 15:17:00,90.5,69.3,29.93,SSE,167,0.0,4.0,50,0.00,,,0.00,947,Wunderground v.1.15,2013-06-15 20:17:00,
2013-06-15 15:23:00,90.6,69.4,29.93,SSE,165,0.0,1.0,50,0.00,,,0.00,645,Wunderground v.1.15,2013-06-15 20:23:00,
2013-06-15 15:28:00,90.9,69.7,29.93,SSE,165,0.0,1.0,50,0.00,,,0.00,865,Wunderground v.1.15,2013-06-15 20:28:00,
2013-06-15 15:33:00,91.1,68.7,29.93,South,170,0.0,1.0,48,0.00,,,0.00,867,Wunderground v.1.15,2013-06-15 20:33:00,
2013-06-15 15:39:00,91.0,69.2,29.92,South,183,0.0,1.0,49,0.00,,,0.00,831,Wunderground v.1.15,2013-06-15 20:39:00,
2013-06-15 15:44:00,91.1,68.1,29.92,South,174,0.0,1.0,47,0.00,,,0.00,803,Wunderground v.1.15,2013-06-15 20:44:00,
2013-06-15 15:50:00,90.9,68.5,29.92,South,178,0.0,1.0,48,0.00,,,0.00,791,Wunderground v.1.15,2013-06-15 20:50:00,
2013-06-15 15:55:00,91.2,69.4,29.92,South,178,0.0,1.0,49,0.00,,,0.00,780,Wunderground v.1.15,2013-06-15 20:55:00,
2013-06-15 16:00:00,91.5,70.8,29.92,South,190,0.0,1.0,51,0.00,,,0.00,798,Wunderground v.1.15,2013-06-15 21:00:00,
2013-06-15 16:05:00,91.2,69.4,29.92,South,190,0.0,1.0,49,0.00,,,0.00,796,Wunderground v.1.15,2013-06-15 21:05:00,
2013-06-15 16:10:00,91.2,70.0,29.92,South,190,0.0,1.0,50,0.00,,,0.00,766,Wunderground v.1.15,2013-06-15 21:10:00,
2013-06-15 16:16:00,91.4,70.1,29.92,South,190,0.0,1.0,50,0.00,,,0.00,733,Wunderground v.1.15,2013-06-15 21:16:00,
2013-06-15 16:24:00,91.0,70.4,29.91,ESE,112,0.0,1.0,51,0.00,,,0.00,659,Wunderground v.1.15,2013-06-15 21:24:00,
2013-06-15 16:29:00,90.9,69.7,29.91,East,83,1.0,5.0,50,0.00,,,0.00,454,Wunderground v.1.15,2013-06-15 21:29:00,
2013-06-15 16:35:00,90.7,72.3,29.91,East,84,1.0,5.0,55,0.00,,,0.00,679,Wunderground v.1.15,2013-06-15 21:35:00,
2013-06-15 16:40:00,90.6,69.4,29.91,East,99,0.0,1.0,50,0.00,,,0.00,645,Wunderground v.1.15,2013-06-15 21:40:00,
2013-06-15 16:48:00,90.6,72.2,29.91,East,98,0.0,1.0,55,0.00,,,0.00,619,Wunderground v.1.15,2013-06-15 21:48:00,
2013-06-15 16:54:00,90.1,71.2,29.91,SE,125,1.0,2.0,54,0.00,,,0.00,162,Wunderground v.1.15,2013-06-15 21:54:00,
2013-06-15 17:00:00,89.4,71.6,29.91,SE,125,0.0,1.0,56,0.00,,,0.00,167,Wunderground v.1.15,2013-06-15 22:00:00,
2013-06-15 17:06:00,89.4,72.2,29.91,SE,125,0.0,1.0,57,0.00,,,0.00,554,Wunderground v.1.15,2013-06-15 22:06:00,
2013-06-15 17:14:00,90.0,71.1,29.91,SE,125,0.0,1.0,54,0.00,,,0.00,559,Wunderground v.1.15,2013-06-15 22:14:00,
2013-06-15 17:20:00,90.4,70.9,29.91,ESE,114,0.0,1.0,53,0.00,,,0.00,529,Wunderground v.1.15,2013-06-15 22:20:00,
2013-06-15 17:27:00,90.4,72.0,29.90,ESE,114,0.0,3.0,55,0.00,,,0.00,490,Wunderground v.1.15,2013-06-15 22:27:00,
2013-06-15 17:32:00,90.3,74.5,29.90,ESE,114,0.0,1.0,60,0.00,,,0.00,454,Wunderground v.1.15,2013-06-15 22:32:00,
2013-06-15 17:38:00,90.0,72.7,29.90,ESE,115,0.0,1.0,57,0.00,,,0.00,427,Wunderground v.1.15,2013-06-15 22:38:00,
2013-06-15 17:43:00,89.8,70.4,29.90,ESE,115,0.0,1.0,53,0.00,,,0.00,399,Wunderground v.1.15,2013-06-15 22:43:00,
2013-06-15 17:49:00,89.7,73.5,29.90,ESE,115,0.0,1.0,59,0.00,,,0.00,383,Wunderground v.1.15,2013-06-15 22:49:00,
2013-06-15 17:54:00,89.8,69.3,29.89,ESE,115,0.0,1.0,51,0.00,,,0.00,369,Wunderground v.1.15,2013-06-15 22:54:00,
2013-06-15 18:00:00,90.7,74.4,29.89,ESE,115,0.0,1.0,59,0.00,,,0.00,346,Wunderground v.1.15,2013-06-15 23:00:00,
2013-06-15 18:06:00,90.5,72.7,29.89,ESE,115,0.0,1.0,56,0.00,,,0.00,323,Wunderground v.1.15,2013-06-15 23:06:00,
2013-06-15 18:11:00,90.2,69.0,29.89,ESE,111,0.0,1.0,50,0.00,,,0.00,309,Wunderground v.1.15,2013-06-15 23:11:00,
2013-06-15 18:17:00,90.0,70.0,29.89,ESE,115,0.0,1.0,52,0.00,,,0.00,294,Wunderground v.1.15,2013-06-15 23:17:00,
2013-06-15 18:23:00,89.7,69.2,29.89,ESE,115,0.0,1.0,51,0.00,,,0.00,253,Wunderground v.1.15,2013-06-15 23:23:00,
2013-06-15 18:29:00,89.7,72.4,29.89,ESE,115,0.0,1.0,57,0.00,,,0.00,272,Wunderground v.1.15,2013-06-15 23:29:00,
2013-06-15 18:35:00,89.7,69.7,29.89,ESE,115,0.0,1.0,52,0.00,,,0.00,260,Wunderground v.1.15,2013-06-15 23:35:00,
2013-06-15 18:40:00,89.7,70.8,29.89,ESE,115,0.0,1.0,54,0.00,,,0.00,244,Wunderground v.1.15,2013-06-15 23:40:00,
2013-06-15 18:45:00,89.8,70.9,29.89,ESE,115,0.0,1.0,54,0.00,,,0.00,204,Wunderground v.1.15,2013-06-15 23:45:00,
2013-06-15 18:51:00,89.8,70.4,29.89,ESE,115,0.0,1.0,53,0.00,,,0.00,199,Wunderground v.1.15,2013-06-15 23:51:00,
2013-06-15 18:56:00,89.7,71.9,29.89,ESE,115,0.0,1.0,56,0.00,,,0.00,171,Wunderground v.1.15,2013-06-15 23:56:00,
2013-06-15 19:03:00,89.3,71.0,29.89,ESE,115,0.0,1.0,55,0.00,,,0.00,137,Wunderground v.1.15,2013-06-16 00:03:00,
2013-06-15 19:08:00,88.9,71.7,29.90,ESE,115,0.0,1.0,57,0.00,,,0.00,127,Wunderground v.1.15,2013-06-16 00:08:00,
2013-06-15 19:14:00,88.4,71.7,29.90,ESE,115,0.0,1.0,58,0.00,,,0.00,86,Wunderground v.1.15,2013-06-16 00:14:00,
2013-06-15 19:19:00,88.1,71.5,29.90,ESE,115,0.0,1.0,58,0.00,,,0.00,51,Wunderground v.1.15,2013-06-16 00:19:00,
2013-06-15 19:24:00,87.9,71.8,29.90,ESE,115,0.0,1.0,59,0.00,,,0.00,23,Wunderground v.1.15,2013-06-16 00:24:00,
2013-06-15 19:29:00,87.5,71.9,29.90,ESE,115,0.0,1.0,60,0.00,,,0.00,14,Wunderground v.1.15,2013-06-16 00:29:00,
2013-06-15 19:34:00,87.1,71.5,29.90,ESE,115,0.0,1.0,60,0.00,,,0.00,14,Wunderground v.1.15,2013-06-16 00:34:00,
2013-06-15 19:39:00,86.5,71.9,29.90,ESE,115,0.0,1.0,62,0.00,,,0.00,23,Wunderground v.1.15,2013-06-16 00:39:00,
2013-06-15 19:45:00,86.0,71.9,29.91,ESE,115,0.0,1.0,63,0.00,,,0.00,23,Wunderground v.1.15,2013-06-16 00:45:00,
2013-06-15 19:50:00,85.6,72.0,29.91,ESE,115,0.0,1.0,64,0.00,,,0.00,19,Wunderground v.1.15,2013-06-16 00:50:00,
2013-06-15 19:56:00,85.2,73.0,29.91,ESE,115,0.0,1.0,67,0.00,,,0.00,12,Wunderground v.1.15,2013-06-16 00:56:00,
2013-06-15 20:02:00,84.8,72.6,29.91,ESE,115,0.0,1.0,67,0.00,,,0.00,7,Wunderground v.1.15,2013-06-16 01:02:00,
2013-06-15 20:07:00,84.3,72.6,29.91,ESE,115,0.0,1.0,68,0.00,,,0.00,0,Wunderground v.1.15,2013-06-16 01:07:00,
2013-06-15 20:12:00,83.9,72.2,29.91,ESE,115,0.0,1.0,68,0.00,,,0.00,0,Wunderground v.1.15,2013-06-16 01:12:00,
2013-06-15 20:18:00,83.5,71.8,29.91,ESE,115,0.0,1.0,68,0.00,,,0.00,0,Wunderground v.1.15,2013-06-16 01:18:00,
2013-06-15 20:23:00,83.2,72.0,29.91,ESE,115,0.0,1.0,69,0.00,,,0.00,0,Wunderground v.1.15,2013-06-16 01:23:00,
2013-06-15 20:28:00,82.9,72.1,29.91,ESE,115,0.0,1.0,70,0.00,,,0.00,0,Wunderground v.1.15,2013-06-16 01:28:00,
2013-06-15 20:33:00,82.5,71.7,29.91,ESE,115,0.0,1.0,70,0.00,,,0.00,0,Wunderground v.1.15,2013-06-16 01:33:00,
2013-06-15 20:39:00,82.2,71.9,29.92,ESE,115,0.0,1.0,71,0.00,,,0.00,0,Wunderground v.1.15,2013-06-16 01:39:00,
2013-06-15 20:44:00,81.8,71.9,29.92,ESE,115,0.0,1.0,72,0.00,,,0.00,0,Wunderground v.1.15,2013-06-16 01:44:00,
2013-06-15 20:50:00,81.5,72.0,29.92,ESE,115,0.0,1.0,73,0.00,,,0.00,0,Wunderground v.1.15,2013-06-16 01:50:00,
2013-06-15 20:55:00,81.3,71.8,29.93,ESE,115,0.0,1.0,73,0.00,,,0.00,0,Wunderground v.1.15,2013-06-16 01:55:00,
2013-06-15 21:00:00,81.0,71.5,29.93,ESE,115,0.0,1.0,73,0.00,,,0.00,0,Wunderground v.1.15,2013-06-16 02:00:00,
2013-06-15 21:06:00,80.8,71.7,29.93,ESE,115,0.0,1.0,74,0.00,,,0.00,0,Wunderground v.1.15,2013-06-16 02:06:00,
2013-06-15 21:11:00,80.9,71.8,29.94,ESE,115,0.0,1.0,74,0.00,,,0.00,0,Wunderground v.1.15,2013-06-16 02:11:00,
2013-06-15 21:16:00,81.0,71.5,29.94,ESE,115,0.0,1.0,73,0.00,,,0.00,0,Wunderground v.1.15,2013-06-16 02:16:00,
2013-06-15 21:22:00,81.0,71.9,29.94,ESE,115,0.0,1.0,74,0.00,,,0.00,0,Wunderground v.1.15,2013-06-16 02:22:00,
2013-06-15 21:27:00,81.0,71.9,29.94,ESE,115,0.0,1.0,74,0.00,,,0.00,0,Wunderground v.1.15,2013-06-16 02:27:00,
2013-06-15 21:32:00,80.9,72.2,29.94,ESE,115,0.0,1.0,75,0.00,,,0.00,0,Wunderground v.1.15,2013-06-16 02:32:00,
2013-06-15 21:38:00,80.7,72.4,29.94,ESE,115,0.0,1.0,76,0.00,,,0.00,0,Wunderground v.1.15,2013-06-16 02:38:00,
2013-06-15 21:44:00,80.5,72.2,29.95,ESE,115,0.0,1.0,76,0.00,,,0.00,0,Wunderground v.1.15,2013-06-16 02:44:00,
2013-06-15 21:49:00,80.3,72.0,29.95,ESE,115,0.0,1.0,76,0.00,,,0.00,0,Wunderground v.1.15,2013-06-16 02:49:00,
2013-06-15 21:54:00,80.1,71.8,29.95,ESE,115,0.0,1.0,76,0.00,,,0.00,0,Wunderground v.1.15,2013-06-16 02:54:00,
2013-06-15 22:00:00,79.9,72.4,29.95,ESE,115,0.0,1.0,78,0.00,,,0.00,0,Wunderground v.1.15,2013-06-16 03:00:00,
2013-06-15 22:06:00,79.7,72.6,29.96,ESE,115,0.0,1.0,79,0.00,,,0.00,0,Wunderground v.1.15,2013-06-16 03:06:00,
2013-06-15 22:11:00,79.5,72.8,29.96,ESE,115,0.0,1.0,80,0.00,,,0.00,0,Wunderground v.1.15,2013-06-16 03:11:00,
2013-06-15 22:17:00,79.4,73.1,29.96,ESE,115,0.0,1.0,81,0.00,,,0.00,0,Wunderground v.1.15,2013-06-16 03:17:00,
2013-06-15 22:22:00,79.4,73.1,29.96,ESE,115,0.0,1.0,81,0.00,,,0.00,0,Wunderground v.1.15,2013-06-16 03:22:00,
2013-06-15 22:27:00,79.3,73.0,29.96,ESE,115,0.0,1.0,81,0.00,,,0.00,0,Wunderground v.1.15,2013-06-16 03:27:00,
2013-06-15 22:32:00,79.3,73.3,29.96,ESE,115,0.0,1.0,82,0.00,,,0.00,0,Wunderground v.1.15,2013-06-16 03:32:00,
2013-06-15 22:38:00,79.2,73.2,29.97,ESE,115,0.0,1.0,82,0.00,,,0.00,0,Wunderground v.1.15,2013-06-16 03:38:00,
2013-06-15 22:43:00,79.1,73.1,29.97,ESE,115,0.0,1.0,82,0.00,,,0.00,0,Wunderground v.1.15,2013-06-16 03:43:00,
2013-06-15 22:48:00,78.9,73.3,29.96,ESE,115,0.0,1.0,83,0.00,,,0.00,0,Wunderground v.1.15,2013-06-16 03:48:00,
2013-06-15 22:53:00,78.7,73.1,29.96,ESE,115,0.0,1.0,83,0.00,,,0.00,0,Wunderground v.1.15,2013-06-16 03:53:00,
2013-06-15 22:59:00,78.7,73.1,29.96,ESE,115,0.0,1.0,83,0.00,,,0.00,0,Wunderground v.1.15,2013-06-16 03:59:00,
2013-06-15 23:01:00,78.5,72.9,29.96,ESE,115,0.0,1.0,83,0.00,,,0.00,0,Wunderground v.1.15,2013-06-16 04:01:00,
2013-06-15 23:02:00,78.5,72.9,29.96,ESE,115,0.0,1.0,83,0.00,,,0.00,0,Wunderground v.1.15,2013-06-16 04:02:00,
2013-06-15 23:03:00,78.5,72.9,29.97,ESE,115,0.0,1.0,83,0.00,,,0.00,0,Wunderground v.1.15,2013-06-16 04:03:00,
2013-06-15 23:05:00,78.4,73.2,29.96,ESE,115,0.0,1.0,84,0.00,,,0.00,0,Wunderground v.1.15,2013-06-16 04:05:00,
2013-06-15 23:06:00,78.3,73.1,29.96,ESE,115,0.0,1.0,84,0.00,,,0.00,0,Wunderground v.1.15,2013-06-16 04:06:00,
2013-06-15 23:11:00,78.1,73.2,29.96,ESE,115,0.0,1.0,85,0.00,,,0.00,0,Wunderground v.1.15,2013-06-16 04:11:00,
2013-06-15 23:17:00,78.0,73.1,29.96,ESE,115,0.0,1.0,85,0.00,,,0.00,0,Wunderground v.1.15,2013-06-16 04:17:00,
2013-06-15 23:23:00,77.9,73.0,29.97,ESE,115,0.0,1.0,85,0.00,,,0.00,0,Wunderground v.1.15,2013-06-16 04:23:00,
2013-06-15 23:35:00,77.7,73.5,29.97,ESE,116,0.0,1.0,87,0.00,,,0.00,0,Wunderground v.1.15,2013-06-16 04:35:00,
2013-06-15 23:42:00,77.6,73.4,29.97,ESE,116,0.0,1.0,87,0.00,,,0.00,0,Wunderground v.1.15,2013-06-16 04:42:00,
2013-06-15 23:48:00,77.5,73.7,29.97,ESE,120,0.0,3.0,88,0.00,,,0.00,0,Wunderground v.1.15,2013-06-16 04:48:00,
2013-06-15 23:54:00,77.4,73.2,29.97,ESE,120,0.0,1.0,87,0.00,,,0.00,0,Wunderground v.1.15,2013-06-16 04:54:00,
2013-06-15 23:59:00,77.4,73.2,29.97,SE,126,0.0,1.0,87,0.00,,,0.00,0,Wunderground v.1.15,2013-06-16 04:59:00,